"read_dt","SO2 (ppb)","flags","PMT voltage (V)","lamp voltage (V)","lamp intensity (Hz)","internal temp (C)","react chamber temp (C)","sample flow (l/min)","pres (mmHg)","SO2 bkg (ppb)","SO2 coefficient"
2017-04-28 00:00:00,1744E-3,5C000400,-0724,0834,12130,027.3,045.4,0.222,747.9,01.17,0.508
2017-04-28 00:01:00,1712E-3,5C000400,-0724,0835,12131,027.3,045.5,0.222,747.8,01.17,0.508
2017-04-28 00:02:00,1808E-3,5C000400,-0724,0835,12078,027.3,045.5,0.222,747.9,01.17,0.508
2017-04-28 00:03:00,1794E-3,5C000400,-0724,0835,12013,027.3,045.4,0.222,747.9,01.17,0.508
2017-04-28 00:04:00,1876E-3,5C000400,-0724,0834,12078,027.3,045.4,0.222,748.0,01.17,0.508
2017-04-28 00:05:00,1711E-3,5C000400,-0724,0835,12055,027.3,045.4,0.222,747.9,01.17,0.508
2017-04-28 00:06:00,1861E-3,5C000400,-0724,0834,12112,027.3,045.4,0.223,747.9,01.17,0.508
2017-04-28 00:07:00,1919E-3,5C000400,-0724,0834,12168,027.3,045.4,0.222,747.9,01.17,0.508
2017-04-28 00:08:00,1836E-3,5C000400,-0724,0835,12209,027.3,045.4,0.222,747.9,01.17,0.508
2017-04-28 00:09:00,1780E-3,5C000400,-0724,0834,12033,027.3,045.4,0.222,748.0,01.17,0.508
2017-04-28 00:10:00,1835E-3,5C000400,-0724,0834,12054,027.3,045.4,0.223,747.9,01.17,0.508
2017-04-28 00:11:00,1871E-3,5C000400,-0724,0835,12114,027.3,045.4,0.222,747.9,01.17,0.508
2017-04-28 00:12:00,1800E-3,5C000400,-0724,0835,11981,027.3,045.4,0.223,747.9,01.17,0.508
2017-04-28 00:13:00,1854E-3,5C000400,-0724,0835,11873,027.3,045.4,0.223,747.9,01.17,0.508
2017-04-28 00:14:00,1893E-3,5C000400,-0724,0834,12143,027.3,045.4,0.222,748.0,01.17,0.508
2017-04-28 00:15:00,1862E-3,5C000400,-0724,0835,12091,027.3,045.4,0.222,748.0,01.17,0.508
2017-04-28 00:16:00,1894E-3,5C000400,-0724,0835,11990,027.3,045.4,0.222,748.0,01.17,0.508
2017-04-28 00:17:00,1882E-3,5C000400,-0724,0835,12147,027.3,045.5,0.222,747.9,01.17,0.508
2017-04-28 00:18:00,1800E-3,5C000400,-0724,0835,12110,027.3,045.5,0.222,748.0,01.17,0.508
2017-04-28 00:19:00,1835E-3,5C000400,-0724,0835,12001,027.3,045.4,0.223,748.0,01.17,0.508
2017-04-28 00:20:00,1868E-3,5C000400,-0724,0834,12006,027.3,045.4,0.222,748.0,01.17,0.508
2017-04-28 00:21:00,1838E-3,5C000400,-0724,0834,11949,027.3,045.5,0.222,748.0,01.17,0.508
2017-04-28 00:22:00,1861E-3,5C000400,-0724,0834,11917,027.3,045.4,0.223,748.0,01.17,0.508
2017-04-28 00:23:00,1817E-3,5C000400,-0724,0835,12085,027.3,045.4,0.223,748.0,01.17,0.508
2017-04-28 00:24:00,1847E-3,5C000400,-0724,0835,12128,027.3,045.4,0.222,748.0,01.17,0.508
2017-04-28 00:25:00,1900E-3,5C000400,-0724,0834,12088,027.3,045.4,0.223,748.0,01.17,0.508
2017-04-28 00:26:00,1821E-3,5C000400,-0724,0835,12097,027.3,045.4,0.222,748.0,01.17,0.508
2017-04-28 00:27:00,1903E-3,5C000400,-0724,0835,12168,027.3,045.4,0.222,748.0,01.17,0.508
2017-04-28 00:28:00,1797E-3,5C000400,-0724,0835,12099,027.3,045.4,0.222,748.0,01.17,0.508
2017-04-28 00:29:00,1814E-3,5C000400,-0724,0834,12130,027.3,045.4,0.222,748.0,01.17,0.508
2017-04-28 00:30:00,1862E-3,5C000400,-0724,0834,11904,027.3,045.4,0.222,747.9,01.17,0.508
2017-04-28 00:31:00,1685E-3,5C000400,-0724,0834,12052,027.2,045.4,0.222,747.9,01.17,0.508
2017-04-28 00:32:00,1793E-3,5C000400,-0724,0835,12063,027.2,045.4,0.223,747.9,01.17,0.508
2017-04-28 00:33:00,1913E-3,5C000400,-0724,0834,12181,027.3,045.4,0.222,747.9,01.17,0.508
2017-04-28 00:34:00,1883E-3,5C000400,-0724,0835,11982,027.3,045.4,0.222,747.9,01.17,0.508
2017-04-28 00:35:00,1954E-3,5C000400,-0724,0834,12055,027.3,045.4,0.223,748.0,01.17,0.508
2017-04-28 00:36:00,1774E-3,5C000400,-0724,0835,11936,027.3,045.5,0.222,747.9,01.17,0.508
2017-04-28 00:37:00,1883E-3,5C000400,-0724,0834,12002,027.3,045.4,0.222,748.0,01.17,0.508
2017-04-28 00:38:00,1768E-3,5C000400,-0724,0835,12161,027.3,045.4,0.223,748.0,01.17,0.508
2017-04-28 00:39:00,1795E-3,5C000400,-0724,0834,12080,027.3,045.4,0.222,748.0,01.17,0.508
2017-04-28 00:40:00,1819E-3,5C000400,-0724,0834,12177,027.3,045.4,0.222,747.9,01.17,0.508
2017-04-28 00:41:00,1894E-3,5C000400,-0724,0834,12164,027.2,045.4,0.223,748.0,01.17,0.508
2017-04-28 00:42:00,1876E-3,5C000400,-0724,0835,12085,027.3,045.4,0.223,747.9,01.17,0.508
2017-04-28 00:43:00,1857E-3,5C000400,-0724,0835,12079,027.3,045.4,0.222,748.0,01.17,0.508
2017-04-28 00:44:00,1826E-3,5C000400,-0724,0835,12037,027.2,045.4,0.223,747.9,01.17,0.508
2017-04-28 00:45:00,1909E-3,5C000400,-0724,0834,12023,027.3,045.4,0.223,748.0,01.17,0.508
2017-04-28 00:46:00,1804E-3,5C000400,-0724,0834,12104,027.2,045.4,0.222,748.0,01.17,0.508
2017-04-28 00:47:00,1599E-3,5C000400,-0724,0834,12096,027.2,045.4,0.223,748.0,01.17,0.508
2017-04-28 00:48:00,1743E-3,5C000400,-0724,0835,12140,027.2,045.4,0.223,748.0,01.17,0.508
2017-04-28 00:49:00,1785E-3,5C000400,-0724,0834,11990,027.2,045.4,0.222,748.0,01.17,0.508
2017-04-28 00:50:00,1731E-3,5C000400,-0724,0834,12036,027.3,045.4,0.223,748.0,01.17,0.508
2017-04-28 00:51:00,1803E-3,5C000400,-0724,0835,12102,027.2,045.4,0.223,748.0,01.17,0.508
2017-04-28 00:52:00,1787E-3,5C000400,-0724,0835,12161,027.2,045.4,0.222,748.0,01.17,0.508
2017-04-28 00:53:00,1833E-3,5C000400,-0724,0834,12204,027.2,045.4,0.223,748.0,01.17,0.508
2017-04-28 00:54:00,1806E-3,5C000400,-0724,0834,12024,027.2,045.4,0.223,748.0,01.17,0.508
2017-04-28 00:55:00,1825E-3,5C000400,-0724,0834,12076,027.2,045.4,0.222,748.0,01.17,0.508
2017-04-28 00:56:00,1813E-3,5C000400,-0724,0834,12039,027.2,045.4,0.223,748.0,01.17,0.508
2017-04-28 00:57:00,1675E-3,5C000400,-0724,0835,12149,027.2,045.4,0.223,748.0,01.17,0.508
2017-04-28 00:58:00,1888E-3,5C000400,-0724,0834,12067,027.2,045.4,0.222,748.0,01.17,0.508
2017-04-28 00:59:00,1860E-3,5C000400,-0724,0835,12170,027.2,045.4,0.223,748.0,01.17,0.508
2017-04-28 01:00:00,1749E-3,5C000400,-0724,0834,12127,027.2,045.4,0.223,748.0,01.17,0.508
2017-04-28 01:01:00,1792E-3,5C000400,-0724,0835,12029,027.2,045.4,0.222,748.0,01.17,0.508
2017-04-28 01:02:00,1840E-3,5C000400,-0724,0834,12149,027.2,045.4,0.223,748.0,01.17,0.508
2017-04-28 01:03:00,1901E-3,5C000400,-0724,0835,12068,027.2,045.4,0.223,748.0,01.17,0.508
2017-04-28 01:04:00,1696E-3,5C000400,-0724,0834,12187,027.2,045.4,0.222,748.0,01.17,0.508
2017-04-28 01:05:00,1892E-3,5C000400,-0724,0835,12196,027.2,045.4,0.223,748.0,01.17,0.508
2017-04-28 01:06:00,1736E-3,5C000400,-0724,0834,12112,027.2,045.4,0.223,748.0,01.17,0.508
2017-04-28 01:07:00,1958E-3,5C000400,-0724,0834,12197,027.2,045.4,0.222,748.0,01.17,0.508
2017-04-28 01:08:00,1793E-3,5C000400,-0724,0835,12077,027.2,045.4,0.223,748.0,01.17,0.508
2017-04-28 01:09:00,1945E-3,5C000400,-0724,0835,12019,027.2,045.4,0.223,747.9,01.17,0.508
2017-04-28 01:10:00,1869E-3,5C000400,-0724,0835,12034,027.2,045.4,0.223,748.0,01.17,0.508
2017-04-28 01:11:00,1802E-3,5C000400,-0724,0834,12190,027.2,045.4,0.223,748.0,01.17,0.508
2017-04-28 01:12:00,1749E-3,5C000400,-0724,0835,12164,027.2,045.4,0.223,747.9,01.17,0.508
2017-04-28 01:13:00,1974E-3,5C000400,-0724,0835,11964,027.2,045.5,0.223,747.9,01.17,0.508
2017-04-28 01:14:00,1859E-3,5C000400,-0724,0834,12091,027.2,045.4,0.223,748.0,01.17,0.508
2017-04-28 01:15:00,1953E-3,5C000400,-0724,0834,12092,027.2,045.4,0.223,748.0,01.17,0.508
2017-04-28 01:16:00,1845E-3,5C000400,-0724,0835,12257,027.2,045.4,0.223,748.0,01.17,0.508
2017-04-28 01:17:00,1855E-3,5C000400,-0724,0834,12055,027.2,045.4,0.222,747.9,01.17,0.508
2017-04-28 01:18:00,1828E-3,5C000400,-0724,0835,12090,027.2,045.4,0.222,747.9,01.17,0.508
2017-04-28 01:19:00,1810E-3,5C000400,-0724,0834,12277,027.2,045.4,0.223,748.0,01.17,0.508
2017-04-28 01:20:00,1859E-3,5C000400,-0724,0834,12025,027.2,045.4,0.223,748.0,01.17,0.508
2017-04-28 01:21:00,1976E-3,5C000400,-0724,0835,12128,027.2,045.4,0.223,748.0,01.17,0.508
2017-04-28 01:22:00,1937E-3,5C000400,-0724,0835,12236,027.2,045.4,0.223,748.0,01.17,0.508
2017-04-28 01:23:00,1837E-3,5C000400,-0724,0835,12109,027.2,045.4,0.222,748.0,01.17,0.508
2017-04-28 01:24:00,1937E-3,5C000400,-0724,0835,12184,027.2,045.5,0.223,748.0,01.17,0.508
2017-04-28 01:25:00,1908E-3,5C000400,-0724,0835,11940,027.2,045.4,0.223,748.0,01.17,0.508
2017-04-28 01:26:00,1866E-3,5C000400,-0724,0835,12148,027.2,045.4,0.222,748.0,01.17,0.508
2017-04-28 01:27:00,1788E-3,5C000400,-0724,0834,11936,027.2,045.4,0.223,748.0,01.17,0.508
2017-04-28 01:28:00,1858E-3,5C000400,-0724,0835,12021,027.2,045.4,0.223,748.0,01.17,0.508
2017-04-28 01:29:00,1776E-3,5C000400,-0724,0834,12096,027.2,045.4,0.223,748.0,01.17,0.508
2017-04-28 01:30:00,1793E-3,5C000400,-0724,0835,11859,027.2,045.4,0.223,748.0,01.17,0.508
2017-04-28 01:31:00,1945E-3,5C000400,-0724,0834,12094,027.2,045.4,0.222,748.1,01.17,0.508
2017-04-28 01:32:00,1809E-3,5C000400,-0724,0835,12095,027.2,045.4,0.223,748.0,01.17,0.508
2017-04-28 01:33:00,1766E-3,5C000400,-0724,0835,12127,027.2,045.4,0.223,748.0,01.17,0.508
2017-04-28 01:34:00,1748E-3,5C000400,-0724,0834,12049,027.2,045.4,0.223,748.1,01.17,0.508
2017-04-28 01:35:00,1927E-3,5C000400,-0724,0835,12048,027.2,045.5,0.223,748.0,01.17,0.508
2017-04-28 01:36:00,1818E-3,5C000400,-0724,0834,12082,027.2,045.5,0.223,748.0,01.17,0.508
2017-04-28 01:37:00,1870E-3,5C000400,-0724,0835,11999,027.2,045.5,0.223,748.0,01.17,0.508
2017-04-28 01:38:00,1848E-3,5C000400,-0724,0835,12146,027.2,045.4,0.223,748.0,01.17,0.508
2017-04-28 01:39:00,1819E-3,5C000400,-0724,0834,12110,027.2,045.4,0.222,748.0,01.17,0.508
2017-04-28 01:40:00,1876E-3,5C000400,-0724,0834,12161,027.2,045.4,0.223,748.0,01.17,0.508
2017-04-28 01:41:00,1870E-3,5C000400,-0724,0834,12057,027.2,045.4,0.223,748.0,01.17,0.508
2017-04-28 01:42:00,1915E-3,5C000400,-0724,0836,11833,027.2,045.4,0.222,748.0,01.17,0.508
2017-04-28 01:43:00,1935E-3,5C000400,-0724,0834,12221,027.2,045.4,0.223,748.0,01.17,0.508
2017-04-28 01:44:00,1894E-3,5C000400,-0724,0834,12061,027.2,045.4,0.223,748.0,01.17,0.508
2017-04-28 01:45:00,1925E-3,5C000400,-0724,0834,12056,027.2,045.4,0.222,748.0,01.17,0.508
2017-04-28 01:46:00,1807E-3,5C000400,-0724,0835,12214,027.2,045.4,0.223,748.0,01.17,0.508
2017-04-28 01:47:00,1907E-3,5C000400,-0724,0834,10935,027.2,045.5,0.222,748.0,01.17,0.508
2017-04-28 01:48:00,1819E-3,5C000400,-0724,0835,12119,027.2,045.4,0.223,748.0,01.17,0.508
2017-04-28 01:49:00,1905E-3,5C000400,-0724,0834,11891,027.2,045.4,0.223,748.0,01.17,0.508
2017-04-28 01:50:00,1761E-3,5C000400,-0724,0834,12049,027.2,045.4,0.222,748.0,01.17,0.508
2017-04-28 01:51:00,1866E-3,5C000400,-0724,0835,12004,027.2,045.4,0.223,748.0,01.17,0.508
2017-04-28 01:52:00,1767E-3,5C000400,-0724,0835,12089,027.2,045.4,0.223,748.0,01.17,0.508
2017-04-28 01:53:00,1867E-3,5C000400,-0724,0834,11942,027.2,045.4,0.223,748.0,01.17,0.508
2017-04-28 01:54:00,1986E-3,5C000400,-0724,0835,12010,027.2,045.4,0.223,748.0,01.17,0.508
2017-04-28 01:55:00,1908E-3,5C000400,-0724,0834,12102,027.1,045.4,0.222,748.1,01.17,0.508
2017-04-28 01:56:00,1763E-3,5C000400,-0724,0835,12229,027.1,045.4,0.223,748.0,01.17,0.508
2017-04-28 01:57:00,1955E-3,5C000400,-0724,0835,12075,027.2,045.4,0.223,748.1,01.17,0.508
2017-04-28 01:58:00,1941E-3,5C000400,-0724,0835,11996,027.2,045.4,0.222,748.0,01.17,0.508
2017-04-28 01:59:00,1817E-3,5C000400,-0724,0835,12186,027.2,045.4,0.223,748.1,01.17,0.508
2017-04-28 02:00:00,1889E-3,5C000400,-0724,0835,12117,027.2,045.4,0.223,748.1,01.17,0.508
2017-04-28 02:01:00,1849E-3,5C000400,-0724,0834,12148,027.2,045.4,0.223,748.1,01.17,0.508
2017-04-28 02:02:00,1864E-3,5C000400,-0724,0834,12049,027.2,045.4,0.223,748.1,01.17,0.508
2017-04-28 02:03:00,1854E-3,5C000400,-0724,0834,12103,027.2,045.4,0.222,748.1,01.17,0.508
2017-04-28 02:04:00,1784E-3,5C000400,-0724,0835,12207,027.1,045.4,0.223,748.1,01.17,0.508
2017-04-28 02:05:00,1905E-3,5C000400,-0724,0834,12078,027.1,045.4,0.223,748.2,01.17,0.508
2017-04-28 02:06:00,1687E-3,5C000400,-0724,0835,11995,027.2,045.4,0.222,748.1,01.17,0.508
2017-04-28 02:07:00,1843E-3,5C000400,-0724,0835,12122,027.2,045.4,0.223,748.1,01.17,0.508
2017-04-28 02:08:00,1880E-3,5C000400,-0724,0833,11942,027.2,045.4,0.223,748.1,01.17,0.508
2017-04-28 02:09:00,1856E-3,5C000400,-0724,0834,12049,027.2,045.4,0.223,748.1,01.17,0.508
2017-04-28 02:10:00,1818E-3,5C000400,-0724,0834,12042,027.2,045.4,0.223,748.1,01.17,0.508
2017-04-28 02:11:00,1992E-3,5C000400,-0724,0834,12134,027.1,045.4,0.223,748.1,01.17,0.508
2017-04-28 02:12:00,1908E-3,5C000400,-0724,0835,12078,027.2,045.4,0.223,748.1,01.17,0.508
2017-04-28 02:13:00,1887E-3,5C000400,-0724,0834,12034,027.2,045.4,0.223,748.1,01.17,0.508
2017-04-28 02:14:00,1759E-3,5C000400,-0724,0835,12235,027.2,045.4,0.223,748.1,01.17,0.508
2017-04-28 02:15:00,1784E-3,5C000400,-0724,0835,12217,027.1,045.4,0.223,748.1,01.17,0.508
2017-04-28 02:16:00,1765E-3,5C000400,-0724,0835,12092,027.2,045.4,0.223,748.1,01.17,0.508
2017-04-28 02:17:00,1841E-3,5C000400,-0724,0834,12169,027.2,045.4,0.223,748.2,01.17,0.508
2017-04-28 02:18:00,1965E-3,5C000400,-0724,0834,12166,027.2,045.4,0.222,748.2,01.17,0.508
2017-04-28 02:19:00,1945E-3,5C000400,-0724,0834,12061,027.2,045.4,0.223,748.1,01.17,0.508
2017-04-28 02:20:00,1806E-3,5C000400,-0724,0835,12176,027.1,045.4,0.223,748.2,01.17,0.508
2017-04-28 02:21:00,1956E-3,5C000400,-0724,0835,12232,027.1,045.4,0.223,748.2,01.17,0.508
2017-04-28 02:22:00,1912E-3,5C000400,-0724,0834,12070,027.1,045.4,0.223,748.2,01.17,0.508
2017-04-28 02:23:00,1916E-3,5C000400,-0724,0835,11896,027.1,045.4,0.222,748.2,01.17,0.508
2017-04-28 02:24:00,1850E-3,5C000400,-0724,0834,12023,027.2,045.4,0.223,748.3,01.17,0.508
2017-04-28 02:25:00,1849E-3,5C000400,-0724,0836,10828,027.1,045.4,0.223,748.2,01.17,0.508
2017-04-28 02:26:00,1942E-3,5C000400,-0724,0834,11985,027.1,045.4,0.223,748.2,01.17,0.508
2017-04-28 02:27:00,1851E-3,5C000400,-0724,0834,12122,027.1,045.4,0.223,748.2,01.17,0.508
2017-04-28 02:28:00,1797E-3,5C000400,-0724,0833,12091,027.1,045.4,0.222,748.2,01.17,0.508
2017-04-28 02:29:00,1898E-3,5C000400,-0724,0834,12167,027.1,045.4,0.223,748.2,01.17,0.508
2017-04-28 02:30:00,1769E-3,5C000400,-0724,0834,12197,027.1,045.4,0.223,748.2,01.17,0.508
2017-04-28 02:31:00,1835E-3,5C000400,-0724,0834,12120,027.1,045.4,0.223,748.2,01.17,0.508
2017-04-28 02:32:00,1868E-3,5C000400,-0724,0834,12167,027.1,045.4,0.223,748.1,01.17,0.508
2017-04-28 02:33:00,1842E-3,5C000400,-0724,0835,12046,027.1,045.4,0.222,748.1,01.17,0.508
2017-04-28 02:34:00,1938E-3,5C000400,-0724,0833,12016,027.1,045.4,0.223,748.2,01.17,0.508
2017-04-28 02:35:00,1875E-3,5C000400,-0724,0834,12062,027.1,045.4,0.223,748.2,01.17,0.508
2017-04-28 02:36:00,1868E-3,5C000400,-0724,0835,12114,027.1,045.4,0.223,748.2,01.17,0.508
2017-04-28 02:37:00,1805E-3,5C000400,-0724,0835,12112,027.1,045.4,0.223,748.2,01.17,0.508
2017-04-28 02:38:00,1797E-3,5C000400,-0724,0834,12220,027.1,045.5,0.222,748.2,01.17,0.508
2017-04-28 02:39:00,1780E-3,5C000400,-0724,0834,12115,027.1,045.4,0.223,748.2,01.17,0.508
2017-04-28 02:40:00,1859E-3,5C000400,-0724,0834,12166,027.1,045.4,0.223,748.2,01.17,0.508
2017-04-28 02:41:00,1921E-3,5C000400,-0724,0834,12005,027.1,045.4,0.223,748.2,01.17,0.508
2017-04-28 02:42:00,1900E-3,5C000400,-0724,0834,12032,027.1,045.4,0.223,748.2,01.17,0.508
2017-04-28 02:43:00,1908E-3,5C000400,-0724,0835,11954,027.1,045.4,0.222,748.2,01.17,0.508
2017-04-28 02:44:00,1831E-3,5C000400,-0724,0835,12004,027.1,045.4,0.223,748.2,01.17,0.508
2017-04-28 02:45:00,1854E-3,5C000400,-0724,0834,12079,027.1,045.4,0.223,748.2,01.17,0.508
2017-04-28 02:46:00,1815E-3,5C000400,-0724,0835,12144,027.1,045.4,0.223,748.2,01.17,0.508
2017-04-28 02:47:00,1831E-3,5C000400,-0724,0835,12017,027.1,045.4,0.223,748.2,01.17,0.508
2017-04-28 02:48:00,1900E-3,5C000400,-0724,0835,11085,027.1,045.4,0.222,748.2,01.17,0.508
2017-04-28 02:49:00,1793E-3,5C000400,-0724,0835,12165,027.1,045.4,0.223,748.3,01.17,0.508
2017-04-28 02:50:00,1823E-3,5C000400,-0724,0834,11936,027.1,045.4,0.223,748.3,01.17,0.508
2017-04-28 02:51:00,1778E-3,5C000400,-0724,0834,11951,027.1,045.4,0.223,748.2,01.17,0.508
2017-04-28 02:52:00,1760E-3,5C000400,-0724,0835,12084,027.1,045.5,0.223,748.2,01.17,0.508
2017-04-28 02:53:00,1858E-3,5C000400,-0724,0835,12099,027.1,045.4,0.223,748.3,01.17,0.508
2017-04-28 02:54:00,1919E-3,5C000400,-0724,0835,12104,027.1,045.4,0.223,748.3,01.17,0.508
2017-04-28 02:55:00,1775E-3,5C000400,-0724,0834,12032,027.1,045.4,0.223,748.3,01.17,0.508
2017-04-28 02:56:00,1845E-3,5C000400,-0724,0834,12096,027.1,045.5,0.223,748.3,01.17,0.508
2017-04-28 02:57:00,1773E-3,5C000400,-0724,0835,12028,027.1,045.4,0.223,748.3,01.17,0.508
2017-04-28 02:58:00,1905E-3,5C000400,-0724,0834,12077,027.1,045.4,0.223,748.3,01.17,0.508
2017-04-28 02:59:00,1889E-3,5C000400,-0724,0834,12236,027.1,045.4,0.223,748.3,01.17,0.508
2017-04-28 03:00:00,1879E-3,5C000400,-0724,0834,12021,027.1,045.4,0.223,748.3,01.17,0.508
2017-04-28 03:01:00,1872E-3,5C000400,-0724,0834,12165,027.1,045.4,0.223,748.2,01.17,0.508
2017-04-28 03:02:00,1834E-3,5C000400,-0724,0835,12147,027.1,045.4,0.223,748.3,01.17,0.508
2017-04-28 03:03:00,1968E-3,5C000400,-0724,0834,12113,027.1,045.4,0.223,748.3,01.17,0.508
2017-04-28 03:04:00,1796E-3,5C000400,-0724,0835,12133,027.1,045.4,0.223,748.3,01.17,0.508
2017-04-28 03:05:00,1953E-3,5C000400,-0724,0834,12082,027.1,045.4,0.223,748.3,01.17,0.508
2017-04-28 03:06:00,1945E-3,5C000400,-0724,0834,12012,027.1,045.5,0.223,748.3,01.17,0.508
2017-04-28 03:07:00,1711E-3,5C000400,-0724,0835,12231,027.1,045.4,0.223,748.3,01.17,0.508
2017-04-28 03:08:00,1852E-3,5C000400,-0724,0834,12103,027.1,045.4,0.223,748.4,01.17,0.508
2017-04-28 03:09:00,1817E-3,5C000400,-0724,0835,11930,027.1,045.4,0.223,748.3,01.17,0.508
2017-04-28 03:10:00,1853E-3,5C000400,-0724,0834,12141,027.1,045.4,0.223,748.3,01.17,0.508
2017-04-28 03:11:00,1818E-3,5C000400,-0724,0835,12044,027.1,045.4,0.223,748.3,01.17,0.508
2017-04-28 03:12:00,1730E-3,5C000400,-0724,0834,12023,027.1,045.4,0.223,748.3,01.17,0.508
2017-04-28 03:13:00,1851E-3,5C000400,-0724,0834,12120,027.1,045.4,0.223,748.3,01.17,0.508
2017-04-28 03:14:00,1665E-3,5C000400,-0724,0834,12014,027.1,045.4,0.223,748.4,01.17,0.508
2017-04-28 03:15:00,1778E-3,5C000400,-0724,0834,12059,027.1,045.4,0.223,748.4,01.17,0.508
2017-04-28 03:16:00,1848E-3,5C000400,-0724,0834,12006,027.1,045.4,0.223,748.4,01.17,0.508
2017-04-28 03:17:00,1955E-3,5C000400,-0724,0835,12121,027.1,045.4,0.223,748.4,01.17,0.508
2017-04-28 03:18:00,1834E-3,5C000400,-0724,0834,12154,027.1,045.4,0.223,748.4,01.17,0.508
2017-04-28 03:19:00,1857E-3,5C000400,-0724,0834,11974,027.1,045.4,0.223,748.4,01.17,0.508
2017-04-28 03:20:00,1864E-3,5C000400,-0724,0835,11940,027.1,045.4,0.223,748.3,01.17,0.508
2017-04-28 03:21:00,1753E-3,5C000400,-0724,0835,12160,027.1,045.4,0.223,748.4,01.17,0.508
2017-04-28 03:22:00,1806E-3,5C000400,-0724,0835,12133,027.1,045.4,0.223,748.4,01.17,0.508
2017-04-28 03:23:00,1767E-3,5C000400,-0724,0835,11927,027.1,045.4,0.223,748.3,01.17,0.508
2017-04-28 03:24:00,1823E-3,5C000400,-0724,0834,12142,027.1,045.4,0.223,748.3,01.17,0.508
2017-04-28 03:25:00,1852E-3,5C000400,-0724,0834,12122,027.1,045.4,0.223,748.3,01.17,0.508
2017-04-28 03:26:00,1896E-3,5C000400,-0724,0834,11829,027.1,045.4,0.223,748.4,01.17,0.508
2017-04-28 03:27:00,1867E-3,5C000400,-0724,0834,12042,027.1,045.4,0.223,748.4,01.17,0.508
2017-04-28 03:28:00,1774E-3,5C000400,-0724,0834,12032,027.1,045.4,0.223,748.4,01.17,0.508
2017-04-28 03:29:00,1804E-3,5C000400,-0724,0835,12099,027.1,045.4,0.223,748.4,01.17,0.508
2017-04-28 03:30:00,1799E-3,5C000400,-0724,0834,12211,027.1,045.4,0.223,748.4,01.17,0.508
2017-04-28 03:31:00,1903E-3,5C000400,-0724,0835,12066,027.1,045.4,0.223,748.4,01.17,0.508
2017-04-28 03:32:00,1824E-3,5C000400,-0724,0835,12113,027.1,045.4,0.223,748.4,01.17,0.508
2017-04-28 03:33:00,1775E-3,5C000400,-0724,0834,12044,027.1,045.4,0.223,748.4,01.17,0.508
2017-04-28 03:34:00,1808E-3,5C000400,-0724,0834,12071,027.1,045.4,0.223,748.4,01.17,0.508
2017-04-28 03:35:00,1767E-3,5C000400,-0724,0834,11961,027.1,045.4,0.223,748.4,01.17,0.508
2017-04-28 03:36:00,1911E-3,5C000400,-0724,0834,12025,027.1,045.4,0.223,748.4,01.17,0.508
2017-04-28 03:37:00,1848E-3,5C000400,-0724,0834,12169,027.1,045.4,0.223,748.4,01.17,0.508
2017-04-28 03:38:00,1792E-3,5C000400,-0724,0835,11888,027.1,045.4,0.223,748.3,01.17,0.508
2017-04-28 03:39:00,1789E-3,5C000400,-0724,0834,12100,027.1,045.4,0.223,748.3,01.17,0.508
2017-04-28 03:40:00,1877E-3,5C000400,-0724,0835,12110,027.0,045.4,0.223,748.3,01.17,0.508
2017-04-28 03:41:00,1733E-3,5C000400,-0724,0834,12011,027.1,045.4,0.223,748.4,01.17,0.508
2017-04-28 03:42:00,1958E-3,5C000400,-0724,0833,12038,027.0,045.4,0.223,748.4,01.17,0.508
2017-04-28 03:43:00,1780E-3,5C000400,-0724,0834,12076,027.1,045.4,0.223,748.3,01.17,0.508
2017-04-28 03:44:00,1912E-3,5C000400,-0724,0834,12051,027.0,045.4,0.223,748.3,01.17,0.508
2017-04-28 03:45:00,1931E-3,5C000400,-0724,0834,12147,027.0,045.4,0.223,748.3,01.17,0.508
2017-04-28 03:46:00,1935E-3,5C000400,-0724,0833,12164,027.0,045.4,0.223,748.4,01.17,0.508
2017-04-28 03:47:00,1902E-3,5C000400,-0724,0834,12109,027.0,045.4,0.223,748.4,01.17,0.508
2017-04-28 03:48:00,1924E-3,5C000400,-0724,0833,12085,027.0,045.4,0.223,748.4,01.17,0.508
2017-04-28 03:49:00,1874E-3,5C000400,-0724,0835,12080,027.0,045.4,0.223,748.3,01.17,0.508
2017-04-28 03:50:00,1908E-3,5C000400,-0724,0834,12086,027.0,045.4,0.223,748.3,01.17,0.508
2017-04-28 03:51:00,1788E-3,5C000400,-0724,0834,12077,027.1,045.4,0.223,748.3,01.17,0.508
2017-04-28 03:52:00,1801E-3,5C000400,-0724,0835,12103,027.1,045.4,0.223,748.3,01.17,0.508
2017-04-28 03:53:00,1826E-3,5C000400,-0724,0834,12038,027.0,045.4,0.223,748.3,01.17,0.508
2017-04-28 03:54:00,1779E-3,5C000400,-0724,0834,12234,027.0,045.4,0.223,748.4,01.17,0.508
2017-04-28 03:55:00,1846E-3,5C000400,-0724,0834,12063,027.0,045.4,0.223,748.3,01.17,0.508
2017-04-28 03:56:00,2030E-3,5C000400,-0724,0834,12024,027.1,045.4,0.223,748.4,01.17,0.508
2017-04-28 03:57:00,1837E-3,5C000400,-0724,0834,12082,027.1,045.4,0.223,748.3,01.17,0.508
2017-04-28 03:58:00,1965E-3,5C000400,-0724,0835,12154,027.1,045.4,0.223,748.3,01.17,0.508
2017-04-28 03:59:00,1873E-3,5C000400,-0724,0835,12182,027.0,045.4,0.223,748.3,01.17,0.508
2017-04-28 04:00:00,1910E-3,5C000400,-0724,0835,12081,027.0,045.4,0.223,748.4,01.17,0.508
2017-04-28 04:01:00,1726E-3,5C000400,-0724,0834,12004,027.0,045.4,0.223,748.3,01.17,0.508
2017-04-28 04:02:00,1840E-3,5C000400,-0724,0835,12129,027.0,045.4,0.223,748.4,01.17,0.508
2017-04-28 04:03:00,1965E-3,5C000400,-0724,0835,12028,027.0,045.4,0.223,748.4,01.17,0.508
2017-04-28 04:04:00,1864E-3,5C000400,-0724,0834,12178,027.0,045.4,0.223,748.4,01.17,0.508
2017-04-28 04:05:00,1813E-3,5C000400,-0724,0834,12142,027.0,045.4,0.223,748.4,01.17,0.508
2017-04-28 04:06:00,1886E-3,5C000400,-0724,0833,12144,027.0,045.4,0.223,748.4,01.17,0.508
2017-04-28 04:07:00,1766E-3,5C000400,-0724,0834,12203,027.0,045.4,0.223,748.4,01.17,0.508
2017-04-28 04:08:00,1809E-3,5C000400,-0724,0833,12065,027.0,045.4,0.223,748.4,01.17,0.508
2017-04-28 04:09:00,1803E-3,5C000400,-0724,0834,12177,027.0,045.4,0.223,748.5,01.17,0.508
2017-04-28 04:10:00,1885E-3,5C000400,-0724,0834,12195,027.0,045.4,0.223,748.4,01.17,0.508
2017-04-28 04:11:00,1801E-3,5C000400,-0724,0834,11927,027.0,045.4,0.223,748.4,01.17,0.508
2017-04-28 04:12:00,1874E-3,5C000400,-0724,0834,11945,027.0,045.4,0.223,748.4,01.17,0.508
2017-04-28 04:13:00,1891E-3,5C000400,-0724,0835,12089,027.0,045.4,0.223,748.4,01.17,0.508
2017-04-28 04:14:00,1901E-3,5C000400,-0724,0834,11988,027.0,045.4,0.223,748.4,01.17,0.508
2017-04-28 04:15:00,1710E-3,5C000400,-0724,0835,12228,027.0,045.4,0.223,748.4,01.17,0.508
2017-04-28 04:16:00,1715E-3,5C000400,-0724,0834,12073,027.0,045.4,0.223,748.4,01.17,0.508
2017-04-28 04:17:00,1908E-3,5C000400,-0724,0834,12127,027.0,045.4,0.223,748.4,01.17,0.508
2017-04-28 04:18:00,1763E-3,5C000400,-0724,0834,12121,027.0,045.4,0.223,748.4,01.17,0.508
2017-04-28 04:19:00,1855E-3,5C000400,-0724,0835,12051,027.0,045.4,0.223,748.4,01.17,0.508
2017-04-28 04:20:00,1791E-3,5C000400,-0724,0835,12014,027.0,045.4,0.223,748.4,01.17,0.508